Abbeville, LA

10:01 PM CDT on May 28, 2017 (GMT -0500)
Abbeville

Weather History for KIYA - January, 2014

Change the Weather History Date:

Saturday, January 4, 2014

  Actual Average (KARA) Record (KARA)
Temperature  
Mean Temperature 48 °F -  
Max Temperature 64 °F 60 °F 78 °F (1997)
Min Temperature 32 °F 41 °F 20 °F (1979)
Degree Days  
Heating Degree Days 17    
Moisture  
Dew Point 37 °F    
Average Humidity 65    
Maximum Humidity 90    
Minimum Humidity 43    
Precipitation  
Precipitation 0.00 in - - ()
Sea Level Pressure  
Sea Level Pressure 30.13 in    
Wind  
Wind Speed 6 mph (ESE)    
Max Wind Speed 14 mph    
Max Gust Speed 18 mph    
Visibility 10 miles    
Events      
Averages and records for this station are not official NWS values.
T = Trace of Precipitation, MM = Missing Value Source: NWS Daily Summary

Daily Weather History Graph

Daily Weather History Graph

Search for Another Location

Airport or City:

Trip Planner

Search our weather history database for the weather conditions in past years. The results will help you decide how hot, cold, wet, or windy it might be!

Date:

Astronomy

Jan. 04, 2014 Rise Set
Actual Time 7:04 AM CST 5:22 PM CST
Civil Twilight 6:38 AM CST 5:48 PM CST
Nautical Twilight 6:08 AM CST 6:17 PM CST
Astronomical Twilight 5:39 AM CST 6:47 PM CST
Moon 9:28 AM CST (1/4) 9:22 PM CST (1/4)
Length of Visible Light 11h 09m
Length of Day
10h 17m
Waxing Crescent, 15% of the Moon is Illuminated
Jan 4
Waxing Crescent
Jan 7
First Quarter
Jan 15
Full
Jan 23
Last Quarter
Jan 30
New

Hourly Weather History & Observations

Time (CST) Temp. Windchill Dew Point Humidity Pressure Visibility Wind Dir Wind Speed Gust Speed Precip Events Conditions
12:15 AM 36.5 °F - 25.9 °F 65% 30.27 in 10.0 mi North - - N/A   Clear
12:35 AM 36.7 °F 32.9 °F 26.4 °F 66% 30.26 in 10.0 mi ESE 4.6 mph - N/A   Clear
12:55 AM 37.0 °F - 25.7 °F 64% 30.26 in 10.0 mi North - - N/A   Clear
1:15 AM 35.1 °F 32.2 °F 27.3 °F 73% 30.25 in 10.0 mi East 3.5 mph - N/A   Clear
1:35 AM 33.8 °F - 28.0 °F 79% 30.25 in 10.0 mi North - - N/A   Clear
1:55 AM 32.5 °F - 27.0 °F 80% 30.24 in 10.0 mi North - - N/A   Clear
2:15 AM 33.3 °F - 27.0 °F 78% 30.24 in 10.0 mi North - - N/A   Clear
2:35 AM 32.0 °F - 29.5 °F 90% 30.23 in 10.0 mi North - - N/A   Clear
2:55 AM 32.0 °F - 29.5 °F 90% 30.23 in 10.0 mi North - - N/A   Clear
3:15 AM 32.9 °F - 27.5 °F 81% 30.23 in 10.0 mi North - - N/A   Clear
3:35 AM 32.4 °F - 28.8 °F 87% 30.23 in 10.0 mi North - - N/A   Clear
3:55 AM 32.5 °F - 26.6 °F 79% 30.21 in 10.0 mi North - - N/A   Clear
4:15 AM 33.6 °F - 28.0 °F 80% 30.22 in 10.0 mi North - - N/A   Mostly Cloudy
4:35 AM 35.1 °F - 27.9 °F 75% 30.21 in 10.0 mi North - - N/A   Overcast
4:55 AM 36.1 °F - 26.2 °F 67% 30.22 in 10.0 mi North - - N/A   Overcast
5:15 AM 36.7 °F - 28.0 °F 71% 30.22 in 10.0 mi North - - N/A   Overcast
5:35 AM 36.7 °F - 28.8 °F 73% 30.21 in 10.0 mi Calm Calm - N/A   Overcast
5:55 AM 37.4 °F - 29.5 °F 73% 30.22 in 10.0 mi Calm Calm - N/A   Overcast
6:15 AM 38.3 °F - 28.4 °F 68% 30.21 in 10.0 mi Calm Calm - N/A   Overcast
6:35 AM 38.8 °F - 28.2 °F 66% 30.22 in 10.0 mi North - - N/A   Overcast
6:55 AM 39.2 °F 37.0 °F 28.6 °F 66% 30.22 in 10.0 mi East 3.5 mph - N/A   Overcast
7:15 AM 39.6 °F 37.4 °F 29.5 °F 67% 30.22 in 10.0 mi ENE 3.5 mph - N/A   Overcast
7:35 AM 40.3 °F 37.1 °F 30.2 °F 67% 30.22 in 10.0 mi East 4.6 mph - N/A   Overcast
7:55 AM 40.8 °F 36.9 °F 30.2 °F 66% 30.22 in 10.0 mi East 5.8 mph - N/A   Overcast
8:15 AM 41.4 °F - 31.3 °F 67% 30.22 in 10.0 mi North - - N/A   Overcast
8:35 AM 42.4 °F 40.7 °F 32.0 °F 67% 30.22 in 10.0 mi East 3.5 mph - N/A   Overcast
8:55 AM 43.3 °F 41.7 °F 32.0 °F 64% 30.23 in 10.0 mi ENE 3.5 mph - N/A   Overcast
9:15 AM 44.8 °F 41.6 °F 32.7 °F 63% 30.23 in 10.0 mi ENE 5.8 mph - N/A   Overcast
9:35 AM 45.5 °F 40.3 °F 32.7 °F 61% 30.23 in 10.0 mi East 10.4 mph - N/A   Overcast
9:55 AM 46.6 °F - 33.6 °F 61% 30.21 in 10.0 mi East 8.1 mph - N/A   Overcast
10:15 AM 47.5 °F - 34.0 °F 59% 30.21 in 10.0 mi East 5.8 mph - N/A   Overcast
10:35 AM 48.6 °F - 34.9 °F 59% 30.20 in 10.0 mi East 5.8 mph - N/A   Overcast
10:55 AM 50.9 °F - 36.5 °F 58% 30.19 in 10.0 mi East 6.9 mph - N/A   Overcast
11:15 AM 52.0 °F - 36.7 °F 56% 30.18 in 10.0 mi ESE 6.9 mph - N/A   Mostly Cloudy
11:35 AM 54.3 °F - 37.4 °F 53% 30.16 in 10.0 mi East 9.2 mph - N/A   Scattered Clouds
11:55 AM 56.3 °F - 38.3 °F 51% 30.14 in 10.0 mi East 9.2 mph - N/A   Clear
12:15 PM 57.9 °F - 39.2 °F 50% 30.12 in 10.0 mi ESE 9.2 mph 16.1 mph N/A   Clear
12:35 PM 59.5 °F - 39.7 °F 48% 30.11 in 10.0 mi ESE 9.2 mph - N/A   Clear
12:55 PM 61.0 °F - 40.1 °F 46% 30.10 in 10.0 mi East 6.9 mph - N/A   Clear
1:15 PM 62.1 °F - 40.6 °F 45% 30.10 in 10.0 mi ESE 8.1 mph - N/A   Clear
1:35 PM 63.7 °F - 41.2 °F 44% 30.09 in 10.0 mi ESE 10.4 mph 17.3 mph N/A   Clear
1:55 PM 64.0 °F - 41.0 °F 43% 30.08 in 10.0 mi SE 13.8 mph 18.4 mph N/A   Clear
2:15 PM 64.2 °F - 41.0 °F 43% 30.07 in 10.0 mi SE 13.8 mph 18.4 mph N/A   Clear
2:35 PM 64.0 °F - 41.2 °F 43% 30.06 in 10.0 mi SE 10.4 mph 17.3 mph N/A   Clear
2:55 PM 64.4 °F - 41.5 °F 43% 30.06 in 10.0 mi SE 9.2 mph - N/A   Clear
3:15 PM 63.9 °F - 42.1 °F 45% 30.05 in 10.0 mi SE 9.2 mph 17.3 mph N/A   Clear
3:35 PM 63.0 °F - 41.7 °F 46% 30.05 in 10.0 mi SE 13.8 mph 17.3 mph N/A   Clear
3:55 PM 62.6 °F - 42.1 °F 47% 30.05 in 10.0 mi SE 12.7 mph 18.4 mph N/A   Clear
4:15 PM 62.1 °F - 42.4 °F 49% 30.05 in 10.0 mi SE 10.4 mph 16.1 mph N/A   Clear
4:35 PM 61.0 °F - 42.8 °F 51% 30.05 in 10.0 mi SE 9.2 mph - N/A   Clear
4:55 PM 59.9 °F - 42.8 °F 53% 30.05 in 10.0 mi SE 9.2 mph - N/A   Clear
5:15 PM 58.3 °F - 43.2 °F 57% 30.04 in 10.0 mi SE 9.2 mph - N/A   Clear
5:35 PM 57.2 °F - 43.3 °F 60% 30.04 in 10.0 mi SE 8.1 mph - N/A   Clear
5:55 PM 56.3 °F - 43.7 °F 63% 30.03 in 10.0 mi SE 8.1 mph - N/A   Clear
6:15 PM 55.6 °F - 43.9 °F 65% 30.02 in 10.0 mi SE 6.9 mph - N/A   Clear
6:35 PM 55.0 °F - 43.9 °F 66% 30.02 in 10.0 mi ESE 6.9 mph - N/A   Clear
6:55 PM 54.1 °F - 44.4 °F 70% 30.02 in 10.0 mi ESE 6.9 mph - N/A   Clear
7:15 PM 54.1 °F - 44.8 °F 71% 30.02 in 10.0 mi ESE 9.2 mph - N/A   Clear
7:35 PM 54.1 °F - 45.0 °F 71% 30.02 in 10.0 mi ESE 8.1 mph - N/A   Clear
7:55 PM 53.2 °F - 45.5 °F 75% 30.03 in 10.0 mi SE 8.1 mph - N/A   Clear
8:15 PM 53.1 °F - 46.2 °F 78% 30.03 in 10.0 mi SE 8.1 mph - N/A   Clear
8:35 PM 53.6 °F - 46.4 °F 77% 30.04 in 10.0 mi SE 9.2 mph - N/A   Scattered Clouds
8:55 PM 54.5 °F - 46.4 °F 74% 30.04 in 10.0 mi ESE 10.4 mph - N/A   Mostly Cloudy
9:15 PM 54.7 °F - 46.4 °F 74% 30.04 in 10.0 mi SE 9.2 mph - N/A   Overcast
9:35 PM 54.1 °F - 46.6 °F 76% 30.04 in 10.0 mi SE 8.1 mph - N/A   Mostly Cloudy
9:55 PM 54.5 °F - 46.6 °F 75% 30.03 in 10.0 mi SE 10.4 mph 18.4 mph N/A   Overcast
10:15 PM 54.3 °F - 46.4 °F 75% 30.03 in 10.0 mi SE 9.2 mph - N/A   Overcast
10:35 PM 54.5 °F - 46.4 °F 74% 30.02 in 10.0 mi SE 10.4 mph - N/A   Overcast
10:55 PM 54.5 °F - 46.6 °F 75% 30.01 in 10.0 mi SE 9.2 mph 16.1 mph N/A   Mostly Cloudy
11:15 PM 54.0 °F - 47.3 °F 78% 30.00 in 10.0 mi SE 9.2 mph - N/A   Mostly Cloudy
11:35 PM 53.8 °F - 49.1 °F 84% 30.00 in 10.0 mi SE 5.8 mph - N/A   Mostly Cloudy
11:55 PM 54.5 °F - 50.5 °F 86% 30.00 in 10.0 mi SE 5.8 mph - N/A   Overcast